Regional Weather Roundup
Issued by NWS

Home | Current Version | Previous Version | Graphics & Text | Print | Product List | Glossary On
Versions: 1 2 3 4 5 6 7 8 9 10 11 12 13 14 15 16 17 18 19 20 21 22 23 24 25 26 27 28 29 30 31 32 33 34 35 36 37 38 39 40 41 42 43 44 45 46 47 48 49 50
000
ASUS43 KMPX 292301
RWRMN
WEATHER ROUNDUP FOR MINNESOTA
NATIONAL WEATHER SERVICE TWIN CITIES/CHANHASSEN MN
600 PM CDT SAT AUG 29 2015


NOTE: "FAIR" INDICATES FEW OR NO CLOUDS BELOW 12,000 FEET WITH NO
SIGNIFICANT WEATHER AND/OR OBSTRUCTIONS TO VISIBILITY. N/A MEANS
CURRENT SKY AND/OR WEATHER CONDITIONS ARE NOT AVAILABLE.

MNZ060>063-068>070-300000-
   Twin Cities Metro

CITY           SKY/WX    TMP DP  RH WIND       PRES   REMARKS
TWIN CITIES    PTSUNNY   74  61  63 VRB5      30.02F
ST PAUL        MOSUNNY   73  63  70 SE3       30.02F
CRYSTAL        SUNNY     74  61  63 SW5       30.01S
BLAINE         PTSUNNY   75  63  64 S6        30.02S
LAKEVILLE      MOSUNNY   72  64  78 CALM      30.03S
EDEN PRAIRIE   SUNNY     73  63  70 SW6       30.02S
SOUTH ST PAUL  MOSUNNY   73  63  70 CALM      30.02F
LAKE ELMO      FAIR      72  63  73 S5        30.04F
$$
MNZ001>005-007-008-013>017-022>024-027-028-300000-
   Northwest Minnesota

CITY           SKY/WX    TMP DP  RH WIND       PRES   REMARKS
BEMIDJI        CLOUDY    74  66  75 S8        29.93F
HALLOCK        MOSUNNY   79  70  73 S12       29.82F
ROSEAU         PTSUNNY   77  70  78 S5        29.86F
WARROAD        PTSUNNY   73  70  88 SE5       29.88S
THIEF RVR FALL MOSUNNY  N/A N/A N/A SW9       29.88R
CROOKSTON      PTSUNNY   81  70  69 S13G21    29.86F
FOSSTON        MOSUNNY   77  64  65 S15       29.90F
DETROIT LAKES  MOSUNNY   75  64  69 S9        29.95F
MOORHEAD       FAIR      81  70  69 S12       29.89F
PARK RAPIDS    PTSUNNY   76  64  66 S10       29.96F
MAHNOMEN       FAIR      77  66  69 S10       29.91F
$$
MNZ006-009>011-018-025>026-300000-
   North Central Minnesota

CITY           SKY/WX    TMP DP  RH WIND       PRES   REMARKS
BAUDETTE       PTSUNNY   73  67  81 SE8       29.89F
FLAG ISLAND    PTSUNNY   68  64  88 S10       29.87F
INTL FALLS     CLOUDY    71  65  81 S3        29.93F
WASKISH        CLOUDY    75  68  78 SE3       29.91F
BIG FORK       PTSUNNY   73  66  78 S3        29.95F
LONGVILLE      PTSUNNY   72  63  73 S6        29.97F
GRAND RAPIDS     N/A     72  63  73 S8        29.98F
CRANE LAKE     CLOUDY    70  64  83 S3        29.98R
ORR            CLOUDY    70  61  73 CALM      29.94F
COOK           CLOUDY    72  64  78 SE5       29.97F
WALKER         FAIR      73  65  75 S8        29.96S
$$
MNZ012-019>021-037-300000-
   Northeast Minnesota

CITY           SKY/WX    TMP DP  RH WIND       PRES   REMARKS
DULUTH         CLOUDY    72  62  71 SW9       30.00F
ELY            CLOUDY    70  63  78 SW5       29.98F
HIBBING        PTSUNNY   73  63  70 S7        29.98S
EVELETH        CLOUDY    72  63  73 S8        30.00S
DULUTH HARBOR  PTSUNNY   75  64  69 SW6       29.98S
TWO HARBORS    PTSUNNY   75  66  73 SW7       29.97S
SILVER BAY     PTSUNNY   73  64  73 S5        29.96F
GRAND MARAIS     N/A     56  51  84 W7        29.96F
G MARAIS ARPRT MOSUNNY   68  61  77 CALM      30.01F
$$
MNZ029>031-032-039>041-046>048-054>057-064-300000-
   West Central Minnesota

CITY           SKY/WX    TMP DP  RH WIND       PRES   REMARKS
FERGUS FALLS   MOSUNNY   75  64  69 S9        29.93F
WHEATON        PTSUNNY   73  64  73 SE12      29.94F
MORRIS         CLOUDY    73  66  78 S12       29.95F
ALEXANDRIA     PTSUNNY   73  63  70 SE13      29.99F
ELBOW LAKE     FAIR      73  64  75 SE14      29.95F
WADENA         PTSUNNY   72  63  73 SE7       29.97S
GLENWOOD       PTSUNNY   72  63  73 S9        30.00F
APPLETON       PTSUNNY   77  64  65 S9        29.95F
BENSON         CLOUDY    73  63  68 S6        29.98S
ORTONVILLE     PTSUNNY   77  64  65 SE7       29.95S
MADISON        MOSUNNY   75  64  69 S9        29.96F
WILLMAR        FAIR      73  64  73 SE7       30.01F
$$
MNZ033>034-036-042>043-049>051-058-059-300000-
   Central Minnesota

CITY           SKY/WX    TMP DP  RH WIND       PRES   REMARKS
ST CLOUD       MOSUNNY   71  63  75 S8        30.00F
SAUK CENTRE    FAIR      71  63  74 S7        30.00S
PAYNESVILLE    PTSUNNY   72  62  72 SE9       30.00F
AITKIN         MOSUNNY   73  63  68 S7        29.99S
PINE RIVER     PTSUNNY   72  63  73 S9        30.01F
BRAINERD       PTSUNNY   71  63  75 S7        30.00S
STAPLES        CLOUDY    72  63  73 S6        29.98F
LONG PRAIRIE   FAIR      72  61  68 SE10      30.00F
LITTLE FALLS   PTSUNNY   72  61  68 S6        30.01S
LITCHFIELD     MOSUNNY   72  66  83 SE6       30.02F
BUFFALO        MOSUNNY   70  61  73 S5        30.03F
MAPLE LAKE     MOSUNNY   71  65  81 CALM      30.02F
$$
MNZ037-044-045-052-053-300000-
   East Central Minnesota

CITY           SKY/WX    TMP DP  RH WIND       PRES   REMARKS
PRINCETON      MOSUNNY   73  63  68 S6        30.02S
MORA           MOSUNNY   70  61  73 S6        30.03S
CAMBRIDGE      MOSUNNY   75  61  60 S5        30.00F
RUSH CITY      MOSUNNY   72  63  72 CALM      30.03R
MOOSE LAKE     MOSUNNY   72  63  73 S7        29.99S
HINCKLEY       FAIR      72  63  73 S6        30.01F
CLOQUET        PTSUNNY   73  61  64 SW7       30.00S
MCGREGOR       SUNNY     72  63  73 SW8       30.00S
$$
MNZ071>073-080-081-089-090-097-098-300000-
   Southwest Minnesota

CITY           SKY/WX    TMP DP  RH WIND       PRES   REMARKS
MONTEVIDEO     PTSUNNY   75  66  73 S7        29.99F
GRANITE FALLS  MOSUNNY   75  65  71 SE9       30.00F
CANBY          MOSUNNY   78  63  59 S7        29.98F
MARSHALL       MOSUNNY   77  61  57 S10       30.01F
REDWOOD FALLS  PTSUNNY   74  65  73 SE7       30.01S
OLIVIA         PTSUNNY   72  63  73 S8        30.01S
PIPESTONE      MOSUNNY   73  64  73 S7        30.02F
WINDOM         MOSUNNY   73  64  73 S3        30.04R
WORTHINGTON    MOSUNNY   70  63  78 S8        30.03F
JACKSON        MOSUNNY   72  64  78 S5        30.04F
TRACY          PTSUNNY   75  65  71 S8        30.01F
SLAYTON        PTSUNNY   73  65  77 CALM      30.04S
$$
MNZ065>067-074>077-082>085-091>093-300000-
   South Central Minnesota

CITY           SKY/WX    TMP DP  RH WIND       PRES   REMARKS
MANKATO        MOSUNNY   70  61  73 S3        30.04S
NEW ULM        MOSUNNY   72  64  78 S5        30.03S
ST JAMES       MOSUNNY   72  66  83 SE5       30.05R
FAIRMONT       MOSUNNY   70  59  68 S7        30.04F
GLENCOE        SUNNY     71  65  79 S5        30.03S
FARIBAULT      PTSUNNY   73  64  73 CALM      30.04S
OWATONNA       PTSUNNY   73  64  73 CALM      30.03F
WASECA         PTSUNNY   72  64  78 CALM      30.05F
ALBERT LEA     PTSUNNY   73  64  73 CALM      30.04S
$$
MNZ078>079-086>088-094>096-300000-
   Southeast Minnesota

CITY           SKY/WX    TMP DP  RH WIND       PRES   REMARKS
ROCHESTER      MOSUNNY   71  65  81 SE7       30.05S
RED WING       PTSUNNY   73  61  64 SE5       30.02S
STANTON        PTSUNNY   75  63  66 CALM      30.02S
DODGE CENTER   PTSUNNY   73  63  68 CALM      30.05R
WINONA         CLOUDY    70  61  73 E3        30.04S
AUSTIN         MOSUNNY   73  64  73 CALM      30.04S
PRESTON        MOSUNNY   69  61  76 E3        30.05F
$$
ABBREVIATIONS USED IN REMARKS
   TC - TEMPERATURES IN CELSIUS
  WCI - WIND CHILL INDEX
   HX - HEAT INDEX
  VSB - VISIBILITY
$$



USA.gov is the U.S. government's official web portal to all federal, state and local government web resources and services.